When you browse on this site, cookies collect data to enhance your experience and personalize the content and advertising you see.
Visit our Privacy Policy to learn more. By continuing to use the site, you agree to this use of cookies and data.
  • în România
  • Lista ţărilor
  • Pe 7 zile
  • Temperatura apei
  • Hartă satelitară
  • Meteo pe hartă
  • Widget-uri
  • user-avatar
    Intrare

    Meteo pe oră la Chiclayo

    Astăzi, 25 Mai, Sâmbătă

    Timp Temperatura Precipitaţii Vânt Presiune Umiditate
    00:00 +19°C° 0 mm 4 m/s 758 mmHg 87%
    01:00 +19°C° 0 mm 3 m/s 758 mmHg 86%
    02:00 +19°C° 0 mm 3 m/s 758 mmHg 88%
    03:00 +19°C° 0 mm 3 m/s 758 mmHg 90%
    04:00 +18°C° 0 mm 3 m/s 758 mmHg 92%
    05:00 +18°C° 0 mm 3 m/s 758 mmHg 92%
    06:00 +19°C° 0 mm 3 m/s 758 mmHg 92%
    07:00 +19°C° 0 mm 4 m/s 758 mmHg 93%
    08:00 +20°C° 0 mm 4 m/s 758 mmHg 86%
    09:00 +21°C° 0 mm 4 m/s 758 mmHg 79%
    10:00 +23°C° 0 mm 4 m/s 758 mmHg 72%
    11:00 +25°C° 0 mm 5 m/s 758 mmHg 66%
    12:00 +27°C° 0 mm 5 m/s 757 mmHg 60%
    13:00 +28°C° 0 mm 5 m/s 757 mmHg 54%
    14:00 +28°C° 0 mm 5 m/s 756 mmHg 54%
    15:00 +28°C° 0 mm 6 m/s 756 mmHg 55%
    16:00 +27°C° 0 mm 6 m/s 755 mmHg 55%
    17:00 +26°C° 0 mm 5 m/s 756 mmHg 61%
    18:00 +23°C° 0 mm 5 m/s 756 mmHg 67%
    19:00 +22°C° 0 mm 4 m/s 756 mmHg 73%
    20:00 +22°C° 0 mm 4 m/s 757 mmHg 76%
    21:00 +21°C° 0 mm 4 m/s 758 mmHg 79%
    22:00 +20°C° 0 mm 3 m/s 758 mmHg 81%
    23:00 +20°C° 0 mm 3 m/s 758 mmHg 84%

    Mâine, 26 Mai, Duminică

    Timp Temperatura Precipitaţii Vânt Presiune Umiditate
    00:00 +20°C° 0 mm 3 m/s 758 mmHg 87%
    01:00 +19°C° 0 mm 3 m/s 758 mmHg 89%
    02:00 +19°C° 0 mm 3 m/s 758 mmHg 90%
    03:00 +19°C° 0 mm 3 m/s 758 mmHg 91%
    04:00 +19°C° 0 mm 3 m/s 758 mmHg 93%
    05:00 +19°C° 0 mm 3 m/s 758 mmHg 93%
    06:00 +19°C° 0 mm 3 m/s 758 mmHg 93%
    07:00 +19°C° 0 mm 3 m/s 758 mmHg 93%
    08:00 +19°C° 0 mm 3 m/s 758 mmHg 88%
    09:00 +20°C° 0 mm 3 m/s 758 mmHg 83%
    10:00 +21°C° 0 mm 3 m/s 758 mmHg 78%
    11:00 +23°C° 0 mm 4 m/s 758 mmHg 71%
    12:00 +26°C° 0 mm 5 m/s 757 mmHg 64%
    13:00 +27°C° 0 mm 5 m/s 757 mmHg 57%
    14:00 +27°C° 0 mm 5 m/s 756 mmHg 58%
    15:00 +27°C° 0 mm 5 m/s 756 mmHg 59%
    16:00 +26°C° 0 mm 6 m/s 755 mmHg 60%
    17:00 +25°C° 0 mm 5 m/s 756 mmHg 66%
    18:00 +23°C° 0 mm 5 m/s 756 mmHg 72%
    19:00 +21°C° 0 mm 4 m/s 757 mmHg 77%
    20:00 +21°C° 0 mm 4 m/s 757 mmHg 80%
    21:00 +20°C° 0 mm 4 m/s 758 mmHg 82%
    22:00 +20°C° 0 mm 4 m/s 759 mmHg 84%
    23:00 +20°C° 0 mm 4 m/s 759 mmHg 86%

    Poimâine, 27 Mai, Luni

    Timp Temperatura Precipitaţii Vânt Presiune Umiditate
    00:00 +19°C° 0 mm 4 m/s 759 mmHg 88%
    01:00 +19°C° 0 mm 5 m/s 759 mmHg 89%
    02:00 +19°C° 0 mm 4 m/s 758 mmHg 90%
    03:00 +19°C° 0 mm 4 m/s 758 mmHg 91%
    04:00 +19°C° 0 mm 4 m/s 757 mmHg 92%
    05:00 +19°C° 0 mm 4 m/s 758 mmHg 92%
    06:00 +19°C° 0 mm 4 m/s 758 mmHg 91%
    07:00 +18°C° 0 mm 3 m/s 758 mmHg 91%
    08:00 +20°C° 0 mm 3 m/s 758 mmHg 83%
    09:00 +21°C° 0 mm 4 m/s 758 mmHg 76%
    10:00 +23°C° 0 mm 4 m/s 759 mmHg 68%
    11:00 +25°C° 0 mm 4 m/s 758 mmHg 62%
    12:00 +27°C° 0 mm 5 m/s 757 mmHg 57%
    13:00 +28°C° 0 mm 5 m/s 757 mmHg 51%
    14:00 +28°C° 0 mm 6 m/s 757 mmHg 52%
    15:00 +27°C° 0 mm 6 m/s 756 mmHg 54%
    16:00 +27°C° 0 mm 6 m/s 756 mmHg 55%
    17:00 +26°C° 0 mm 6 m/s 756 mmHg 61%
    18:00 +23°C° 0 mm 6 m/s 756 mmHg 68%
    19:00 +21°C° 0 mm 5 m/s 757 mmHg 74%
    20:00 +21°C° 0 mm 5 m/s 757 mmHg 77%
    21:00 +21°C° 0 mm 4 m/s 758 mmHg 79%
    22:00 +20°C° 0 mm 4 m/s 758 mmHg 82%
    23:00 +20°C° 0 mm 3 m/s 758 mmHg 84%

    28 Mai, Marţi

    Timp Temperatura Precipitaţii Vânt Presiune Umiditate
    00:00 +20°C° 0 mm 3 m/s 758 mmHg 86%
    01:00 +19°C° 0 mm 3 m/s 758 mmHg 88%
    02:00 +19°C° 0.2 mm 3 m/s 758 mmHg 89%
    03:00 +19°C° 0.2 mm 2 m/s 758 mmHg 90%
    04:00 +19°C° 0.2 mm 2 m/s 757 mmHg 91%
    05:00 +18°C° 0.1 mm 3 m/s 758 mmHg 92%
    06:00 +18°C° 0.1 mm 3 m/s 758 mmHg 92%
    07:00 +18°C° 0.1 mm 3 m/s 758 mmHg 93%
    08:00 +19°C° 0 mm 3 m/s 758 mmHg 89%
    09:00 +20°C° 0 mm 3 m/s 759 mmHg 85%
    10:00 +20°C° 0 mm 4 m/s 759 mmHg 81%
    11:00 +22°C° 0 mm 4 m/s 758 mmHg 74%
    12:00 +25°C° 0 mm 5 m/s 757 mmHg 66%
    13:00 +26°C° 0 mm 5 m/s 756 mmHg 59%
    14:00 +26°C° 0 mm 6 m/s 756 mmHg 59%
    15:00 +26°C° 0 mm 6 m/s 755 mmHg 58%
    16:00 +26°C° 0 mm 6 m/s 755 mmHg 58%
    17:00 +24°C° 0 mm 6 m/s 755 mmHg 64%
    18:00 +22°C° 0 mm 5 m/s 756 mmHg 70%
    19:00 +21°C° 0 mm 5 m/s 756 mmHg 76%
    20:00 +20°C° 0 mm 4 m/s 757 mmHg 80%
    21:00 +20°C° 0 mm 4 m/s 757 mmHg 85%
    22:00 +19°C° 0 mm 3 m/s 757 mmHg 89%
    23:00 +19°C° 0 mm 3 m/s 757 mmHg 90%

    29 Mai, Miercuri

    Timp Temperatura Precipitaţii Vânt Presiune Umiditate
    00:00 +18°C° 0 mm 3 m/s 757 mmHg 91%
    01:00 +18°C° 0 mm 2 m/s 757 mmHg 93%
    02:00 +18°C° 0 mm 2 m/s 757 mmHg 93%
    03:00 +18°C° 0 mm 2 m/s 757 mmHg 93%
    04:00 +18°C° 0 mm 2 m/s 756 mmHg 93%
    05:00 +18°C° 0 mm 2 m/s 757 mmHg 93%
    06:00 +18°C° 0 mm 3 m/s 757 mmHg 93%
    07:00 +18°C° 0 mm 3 m/s 757 mmHg 93%
    08:00 +19°C° 0 mm 3 m/s 758 mmHg 87%
    09:00 +20°C° 0 mm 3 m/s 758 mmHg 81%
    10:00 +21°C° 0 mm 3 m/s 758 mmHg 76%
    11:00 +22°C° 0 mm 4 m/s 757 mmHg 70%
    12:00 +25°C° 0 mm 4 m/s 757 mmHg 64%
    13:00 +26°C° 0 mm 5 m/s 756 mmHg 59%
    14:00 +26°C° 0 mm 5 m/s 755 mmHg 60%
    15:00 +25°C° 0 mm 5 m/s 755 mmHg 61%
    16:00 +25°C° 0 mm 5 m/s 755 mmHg 62%
    17:00 +23°C° 0 mm 5 m/s 755 mmHg 68%
    18:00 +21°C° 0 mm 5 m/s 756 mmHg 74%
    19:00 +20°C° 0 mm 4 m/s 757 mmHg 80%
    20:00 +20°C° 0 mm 4 m/s 757 mmHg 83%
    21:00 +19°C° 0 mm 3 m/s 758 mmHg 85%
    22:00 +19°C° 0 mm 3 m/s 758 mmHg 88%
    23:00 +19°C° 0 mm 2 m/s 758 mmHg 87%

    30 Mai, Joi

    Timp Temperatura Precipitaţii Vânt Presiune Umiditate
    00:00 +19°C° 0 mm 2 m/s 758 mmHg 86%
    01:00 +19°C° 0 mm 2 m/s 757 mmHg 85%
    02:00 +19°C° 0 mm 2 m/s 757 mmHg 84%
    03:00 +19°C° 0 mm 2 m/s 757 mmHg 83%
    04:00 +20°C° 0 mm 1 m/s 757 mmHg 82%
    05:00 +20°C° 0 mm 1 m/s 757 mmHg 83%
    06:00 +20°C° 0 mm 1 m/s 758 mmHg 84%
    07:00 +20°C° 0 mm 1 m/s 758 mmHg 86%
    08:00 +20°C° 0 mm 2 m/s 758 mmHg 79%
    09:00 +23°C° 0 mm 2 m/s 758 mmHg 73%
    10:00 +24°C° 0 mm 2 m/s 758 mmHg 67%
    11:00 +25°C° 0 mm 3 m/s 758 mmHg 63%
    12:00 +26°C° 0 mm 4 m/s 757 mmHg 59%
    13:00 +27°C° 0 mm 5 m/s 756 mmHg 54%
    14:00 +27°C° 0 mm 5 m/s 756 mmHg 56%
    15:00 +27°C° 0 mm 5 m/s 756 mmHg 57%
    16:00 +27°C° 0 mm 5 m/s 755 mmHg 58%
    17:00 +25°C° 0 mm 5 m/s 756 mmHg 63%
    18:00 +23°C° 0 mm 5 m/s 757 mmHg 68%
    19:00 +22°C° 0 mm 4 m/s 757 mmHg 73%
    20:00 +21°C° 0 mm 4 m/s 758 mmHg 75%
    21:00 +21°C° 0 mm 4 m/s 758 mmHg 78%
    22:00 +20°C° 0 mm 4 m/s 759 mmHg 80%
    23:00 +20°C° 0 mm 3 m/s 758 mmHg 81%
    Arată mai mult